Meteorología


Deprecated: The each() function is deprecated. This message will be suppressed on further calls in /home/bairesflightcom/public_html/BF/wp-content/plugins/metar/metar.php on line 45


Vista de vientos por altitud

Escuchar ATIS SAEZ

Salida y Puesta del sol

Servicio Meteorológico Nacional
Windy
NOAA Aviation Wheather Center
Ogimet Gramet
WindGuru
Weather Underground

Decodificadores de información

METAR EZEIZA:

SAEZ 131100Z 00000KT 8000 NSC 23/21 Q1009 BECMG CAVOK